GW0751 Weather Reports


Display with metric or nautical units.
time (UTC)temp
F
wind
direction
speed
MPH
gust
MPH
rain 1hr
in
rain 24hr
in
rain mn
in
humidity
%
barometer
mb
20260507085852 50 68 0.0 0.0 0.00 0.00 0.00 97 1018.2
20260507084752 50 0 0.0 0.0 0.00 0.00 0.00 97 1018.1
20260507084236 50 68 0.0 0.0 0.00 0.00 0.00 96 1018.0
20260507083716 50 90 0.0 0.0 0.00 0.00 0.00 96 1018.0
20260507083216 50 248 0.0 0.0 0.00 0.00 0.00 96 1018.0
20260507082717 50 180 0.0 0.0 0.00 0.00 0.00 96 1018.1
20260507082156 50 225 0.0 0.0 0.00 0.00 0.00 96 1018.1
20260507081637 50 270 0.0 0.0 0.00 0.00 0.00 96 1018.0
20260507081121 50 0 0.0 0.0 0.00 0.00 0.00 96 1018.0
20260507080601 50 68 0.0 0.0 0.00 0.00 0.00 96 1018.0
20260507080041 50 270 0.0 0.0 0.00 0.00 0.00 96 1018.0
20260507075521 50 225 0.0 0.0 0.00 0.00 0.00 96 1018.0
20260507075006 50 23 0.0 0.0 0.00 0.00 0.00 96 1018.0
20260507074447 50 45 0.0 0.0 0.00 0.00 0.00 96 1018.0
20260507073926 50 90 0.0 0.0 0.00 0.00 0.00 96 1018.0
20260507073406 50 90 0.0 0.0 0.00 0.00 0.00 95 1018.0
20260507072851 49 0 0.0 0.0 0.00 0.00 0.00 95 1018.0
20260507072312 49 113 0.0 0.0 0.00 0.00 0.00 94 1018.0
20260507071811 48 158 0.0 0.0 0.00 0.00 0.00 94 1017.8
20260507071252 48 90 0.0 0.0 0.00 0.00 0.00 94 1017.8
20260507070736 49 45 0.0 0.0 0.00 0.00 0.00 93 1017.8
20260507070217 49 270 0.0 0.0 0.00 0.00 0.00 93 1017.8
20260507065657 49 248 0.0 0.0 0.00 0.00 0.00 93 1017.8
20260507064621 49 225 0.0 0.0 0.00 0.00 0.00 93 1017.7
20260507064101 49 270 0.0 0.0 0.00 0.00 0.00 93 1017.7
20260507063022 49 248 0.0 0.0 0.00 0.00 0.00 92 1017.6
20260507062506 50 45 0.0 0.0 0.00 0.00 0.00 92 1017.6
20260507060906 50 248 0.0 0.0 0.00 0.00 0.00 91 1017.6
20260507055847 50 270 0.0 0.0 0.00 0.00 0.00 91 1017.6
20260507055311 50 248 0.0 0.0 0.00 0.00 0.00 91 1017.5
20260507054751 51 248 0.0 0.0 0.00 0.00 0.00 91 1017.5
20260507054232 51 113 0.0 0.0 0.00 0.00 0.00 91 1017.5
20260507053716 51 248 0.0 0.0 0.00 0.00 0.00 91 1017.5
20260507053157 51 225 0.0 0.0 0.00 0.00 0.00 92 1017.5
20260507052636 51 45 0.0 0.0 0.00 0.00 0.00 92 1017.5
20260507051602 52 270 0.0 0.0 0.00 0.00 0.00 90 1017.5
20260507051041 52 203 0.0 0.0 0.00 0.00 0.00 89 1017.5
20260507050522 52 113 0.0 0.0 0.00 0.00 0.00 89 1017.5
20260507050002 53 248 0.0 0.0 0.00 0.00 0.00 89 1017.5
20260507045446 53 225 0.0 0.0 0.00 0.00 0.00 89 1017.5
20260507043847 54 248 2.0 2.0 0.00 0.00 0.00 88 1017.4
20260507043332 54 225 0.0 0.0 0.00 0.00 0.00 88 1017.4
20260507042812 54 225 0.0 0.0 0.00 0.00 0.00 87 1017.3
20260507042252 54 225 1.0 1.0 0.00 0.00 0.00 87 1017.3
20260507041732 54 248 3.0 3.0 0.00 0.00 0.00 87 1017.3
20260507041216 55 270 0.0 0.0 0.00 0.00 0.00 86 1017.3
20260507040657 55 270 1.0 1.0 0.00 0.00 0.00 86 1017.3
20260507040137 55 203 4.0 4.0 0.00 0.00 0.00 86 1017.3
20260507035617 56 225 4.0 4.0 0.00 0.00 0.00 85 1017.3
20260507035102 56 270 2.0 2.0 0.00 0.00 0.00 84 1017.4
20260507034542 57 248 3.0 3.0 0.00 0.00 0.00 83 1017.4
20260507033502 58 248 2.0 2.0 0.00 0.00 0.00 82 1017.3
20260507032947 58 203 3.0 3.0 0.00 0.00 0.00 81 1017.2
20260507032427 58 158 3.0 3.0 0.00 0.00 0.00 81 1017.2
20260507031906 59 225 3.0 3.0 0.00 0.00 0.00 80 1017.2
20260507031347 59 248 3.0 3.0 0.00 0.00 0.00 79 1017.2
20260507030832 59 225 3.0 3.0 0.00 0.00 0.00 79 1017.2
20260507030312 60 270 2.0 2.0 0.00 0.00 0.00 78 1017.1
20260507025752 60 248 3.0 3.0 0.00 0.00 0.00 77 1017.1
20260507025232 61 248 3.0 3.0 0.00 0.00 0.00 77 1017.1
20260507024717 61 225 3.0 3.0 0.00 0.00 0.00 76 1017.1
20260507024217 61 338 2.0 2.0 0.00 0.00 0.00 76 1017.0
20260507023657 62 248 4.0 4.0 0.00 0.00 0.00 75 1017.0
20260507023137 62 225 4.0 4.0 0.00 0.00 0.00 75 1016.9
20260507022617 62 225 5.0 5.0 0.00 0.00 0.00 74 1016.9
20260507022057 62 225 4.0 4.0 0.00 0.00 0.00 74 1016.9
20260507021542 63 225 4.0 4.0 0.00 0.00 0.00 73 1017.1
20260507021022 63 248 3.0 3.0 0.00 0.00 0.00 73 1017.1
20260507020522 64 270 6.0 6.0 0.00 0.00 0.00 72 1017.2
20260507014927 65 270 4.0 4.0 0.00 0.00 0.00 70 1017.3
20260507013847 68 270 6.0 6.0 0.00 0.00 0.00 67 1017.4
20260507013312 68 225 6.0 6.0 0.00 0.00 0.00 67 1017.4
20260507011712 68 203 6.0 6.0 0.00 0.00 0.00 67 1017.5
20260507011212 68 225 5.0 5.0 0.00 0.00 0.00 66 1017.5
20260507010657 69 270 4.0 4.0 0.00 0.00 0.00 67 1017.5
20260507010137 68 248 4.0 4.0 0.00 0.00 0.00 67 1017.5
20260507005617 68 203 8.0 8.0 0.00 0.00 0.00 67 1017.5
20260507005057 69 270 6.0 6.0 0.00 0.00 0.00 66 1017.5
20260507004542 70 225 5.0 5.0 0.00 0.00 0.00 65 1017.5
20260507004022 69 248 5.0 5.0 0.00 0.00 0.00 66 1017.5
20260507003502 69 225 5.0 5.0 0.00 0.00 0.00 66 1017.5
20260507002942 68 203 5.0 5.0 0.00 0.00 0.00 67 1017.5
20260507002428 70 225 5.0 5.0 0.00 0.00 0.00 65 1017.5
20260507001347 69 248 5.0 5.0 0.00 0.00 0.00 66 1017.5
20260507000827 68 180 7.0 7.0 0.00 0.00 0.00 67 1017.5
20260507000307 69 225 5.0 5.0 0.00 0.00 0.00 66 1017.6
20260506235752 69 203 6.0 6.0 0.00 0.00 0.00 66 1017.6
20260506234712 71 248 5.0 5.0 0.00 0.00 0.00 65 1017.7
20260506234152 71 225 6.0 6.0 0.00 0.00 0.00 65 1017.7
20260506233117 72 225 6.0 6.0 0.00 0.00 0.00 63 1017.8
20260506232557 72 248 5.0 5.0 0.00 0.00 0.00 64 1017.8
20260506232037 73 225 6.0 6.0 0.00 0.00 0.00 62 1017.8
20260506231522 73 248 5.0 5.0 0.00 0.00 0.00 63 1018.0
20260506231002 73 203 6.0 6.0 0.00 0.00 0.00 63 1018.0
20260506230442 73 203 4.0 4.0 0.00 0.00 0.00 63 1018.2
20260506225922 75 270 5.0 5.0 0.00 0.00 0.00 61 1018.2
20260506225407 75 270 5.0 5.0 0.00 0.00 0.00 61 1018.2
20260506224327 72 270 7.0 7.0 0.00 0.00 0.00 63 1018.4
20260506223808 74 203 6.0 6.0 0.00 0.00 0.00 61 1018.4
20260506223247 75 203 5.0 5.0 0.00 0.00 0.00 61 1018.4
20260506222712 75 248 5.0 5.0 0.00 0.00 0.00 61 1018.4
20260506222152 75 248 4.0 4.0 0.00 0.00 0.00 60 1018.4
20260506221632 75 225 6.0 6.0 0.00 0.00 0.00 59 1018.6
20260506221117 75 248 5.0 5.0 0.00 0.00 0.00 61 1018.6
20260506215517 75 248 5.0 5.0 0.00 0.00 0.00 61 1018.6
20260506215002 75 225 6.0 6.0 0.00 0.00 0.00 61 1018.6
20260506214442 75 315 5.0 5.0 0.00 0.00 0.00 61 1018.6
20260506213922 76 270 5.0 5.0 0.00 0.00 0.00 60 1018.7
20260506213402 75 248 4.0 4.0 0.00 0.00 0.00 61 1018.7
20260506212848 76 248 4.0 4.0 0.00 0.00 0.00 61 1018.9
20260506212327 76 225 3.0 3.0 0.00 0.00 0.00 62 1018.9
20260506211807 75 248 5.0 5.0 0.00 0.00 0.00 61 1018.8
20260506211233 76 248 5.0 5.0 0.00 0.00 0.00 60 1018.8
20260506210727 76 270 5.0 5.0 0.00 0.00 0.00 61 1018.9
20260506210153 76 248 6.0 6.0 0.00 0.00 0.00 61 1018.9
20260506205632 76 270 5.0 5.0 0.00 0.00 0.00 61 1018.9
20260506205112 76 338 5.0 5.0 0.00 0.00 0.00 61 1018.9
20260506204557 75 270 5.0 5.0 0.00 0.00 0.00 62 1018.9
20260506204017 76 248 4.0 4.0 0.00 0.00 0.00 62 1019.1
20260506203457 77 248 6.0 6.0 0.00 0.00 0.00 59 1019.1
20260506202942 77 203 5.0 5.0 0.00 0.00 0.00 61 1019.1
20260506202422 77 68 5.0 5.0 0.00 0.00 0.00 59 1019.1
20260506201902 77 180 4.0 4.0 0.00 0.00 0.00 61 1019.1
20260506201343 77 203 5.0 5.0 0.00 0.00 0.00 59 1019.1
20260506200827 77 203 3.0 3.0 0.00 0.00 0.00 61 1019.1
20260506200307 78 270 3.0 3.0 0.00 0.00 0.00 60 1019.2
20260506195747 77 113 3.0 3.0 0.00 0.00 0.00 61 1019.2
20260506195227 77 248 3.0 3.0 0.00 0.00 0.00 61 1019.4
20260506194712 75 180 5.0 5.0 0.00 0.00 0.00 63 1019.4
20260506194152 73 225 4.0 4.0 0.00 0.00 0.00 66 1019.6
20260506193632 73 225 4.0 4.0 0.00 0.00 0.00 65 1019.6
20260506193112 74 225 5.0 5.0 0.00 0.00 0.00 63 1019.6
20260506192558 76 270 3.0 3.0 0.00 0.00 0.00 62 1019.6
20260506192057 76 180 3.0 3.0 0.00 0.00 0.00 61 1019.6
20260506191537 78 338 3.0 3.0 0.00 0.00 0.00 57 1019.6
20260506190457 79 225 2.0 2.0 0.00 0.00 0.00 57 1019.8
20260506185937 77 113 4.0 4.0 0.00 0.00 0.00 60 1019.8
20260506185422 78 225 2.0 2.0 0.00 0.00 0.00 61 1019.8
20260506184903 77 135 4.0 4.0 0.00 0.00 0.00 61 1019.8
20260506183823 77 270 3.0 3.0 0.00 0.00 0.00 63 1019.8
20260506183307 76 135 3.0 3.0 0.00 0.00 0.00 64 1019.8
20260506182747 75 248 5.0 5.0 0.00 0.00 0.00 64 1019.8
20260506181652 75 180 3.0 3.0 0.00 0.00 0.00 63 1019.6
20260506181133 77 113 3.0 3.0 0.00 0.00 0.00 61 1019.6
20260506180612 77 270 3.0 3.0 0.00 0.00 0.00 59 1019.8
20260506180053 76 113 3.0 3.0 0.00 0.00 0.00 62 1019.8
20260506175537 76 45 2.0 2.0 0.00 0.00 0.00 64 1019.8
20260506175018 76 180 2.0 2.0 0.00 0.00 0.00 62 1019.8
20260506174458 75 293 3.0 3.0 0.00 0.00 0.00 63 1019.8
20260506173938 74 203 3.0 3.0 0.00 0.00 0.00 65 1019.8
20260506173422 74 0 4.0 4.0 0.00 0.00 0.00 65 1019.8
20260506172903 72 225 3.0 3.0 0.00 0.00 0.00 68 1019.8
20260506172343 73 158 3.0 3.0 0.00 0.00 0.00 67 1019.8
20260506171822 74 45 4.0 4.0 0.00 0.00 0.00 65 1019.8
20260506171307 74 135 3.0 3.0 0.00 0.00 0.00 66 1019.8
20260506170748 74 0 1.0 1.0 0.00 0.00 0.00 66 1019.8
20260506170228 72 203 0.0 0.0 0.00 0.00 0.00 66 1019.8
20260506165707 72 68 4.0 4.0 0.00 0.00 0.00 67 1019.8
20260506165153 70 113 2.0 2.0 0.00 0.00 0.00 71 1019.8
20260506164632 67 203 0.0 0.0 0.00 0.00 0.00 74 1019.8
20260506164113 68 135 1.0 1.0 0.00 0.00 0.00 72 1019.8
20260506163553 68 45 3.0 3.0 0.00 0.00 0.00 73 1019.8
20260506163038 66 113 1.0 1.0 0.00 0.00 0.00 74 1019.8
20260506162518 66 45 0.0 0.0 0.00 0.00 0.00 75 1019.8
20260506161957 65 90 0.0 0.0 0.00 0.00 0.00 76 1019.8
20260506161437 64 0 0.0 0.0 0.00 0.00 0.00 77 1019.8
20260506160923 63 68 0.0 0.0 0.00 0.00 0.00 78 1019.8
20260506160403 62 225 0.0 0.0 0.00 0.00 0.00 79 1019.8
20260506155843 62 23 3.0 3.0 0.00 0.00 0.00 79 1019.8
20260506154248 61 45 0.0 0.0 0.00 0.00 0.00 80 1019.6
20260506153728 61 23 1.0 1.0 0.00 0.00 0.00 79 1019.6
20260506152653 61 90 2.0 2.0 0.00 0.00 0.00 80 1019.6
20260506152113 59 45 0.0 0.0 0.00 0.00 0.00 83 1019.6
20260506151553 59 113 0.0 0.0 0.00 0.00 0.00 85 1019.8
20260506151038 58 180 0.0 0.0 0.00 0.00 0.00 86 1019.8
20260506145958 57 158 0.0 0.0 0.00 0.00 0.00 88 1019.6
20260506145438 56 135 0.0 0.0 0.00 0.00 0.00 90 1019.6
20260506144923 56 203 0.0 0.0 0.00 0.00 0.00 91 1019.6
20260506144403 55 248 0.0 0.0 0.00 0.00 0.00 93 1019.6
20260506143843 55 248 0.0 0.0 0.00 0.00 0.00 93 1019.6
20260506142808 54 248 0.0 0.0 0.00 0.00 0.00 94 1019.4
20260506142248 54 248 0.0 0.0 0.00 0.00 0.00 95 1019.4
20260506141728 54 225 0.0 0.0 0.00 0.00 0.00 95 1019.3
20260506141208 53 248 0.0 0.0 0.00 0.00 0.00 95 1019.3
20260506140653 53 270 0.0 0.0 0.00 0.00 0.00 95 1019.3
20260506140133 53 248 0.0 0.0 0.00 0.00 0.00 95 1019.3
20260506135613 53 45 0.0 0.0 0.00 0.00 0.00 95 1019.3
20260506135053 53 45 0.0 0.0 0.00 0.00 0.00 95 1019.2
20260506134533 53 203 0.0 0.0 0.00 0.00 0.00 95 1019.2
20260506133519 53 45 0.0 0.0 0.00 0.00 0.00 95 1019.2
20260506132958 53 315 0.0 0.0 0.00 0.00 0.00 95 1019.2
20260506131938 53 180 0.0 0.0 0.00 0.00 0.00 95 1019.1
20260506131418 52 225 0.0 0.0 0.00 0.00 0.00 95 1019.1
20260506130903 52 135 0.0 0.0 0.00 0.00 0.00 95 1019.1
20260506125823 52 45 0.0 0.0 0.00 0.00 0.00 95 1018.9
20260506125305 52 90 0.0 0.0 0.00 0.00 0.00 95 1018.8
20260506124748 52 225 0.0 0.0 0.00 0.00 0.00 95 1018.8
20260506124228 52 225 0.0 0.0 0.00 0.00 0.00 95 1018.8
20260506123708 52 248 0.0 0.0 0.00 0.00 0.00 95 1018.8
20260506122633 52 180 0.0 0.0 0.00 0.00 0.00 95 1018.7
20260506122113 52 248 0.0 0.0 0.00 0.00 0.00 95 1018.7
20260506121553 52 248 0.0 0.0 0.00 0.00 0.00 95 1018.7
20260506121033 52 225 0.0 0.0 0.00 0.00 0.00 95 1018.7
20260506115438 52 45 0.0 0.0 0.00 0.00 0.00 95 1018.6
20260506113843 52 180 0.0 0.0 0.00 0.00 0.00 95 1018.6
20260506112803 52 270 0.0 0.0 0.00 0.00 0.00 95 1018.5
20260506112248 52 203 0.0 0.0 0.00 0.00 0.00 95 1018.5
20260506111729 52 248 0.0 0.0 0.00 0.00 0.00 95 1018.4
20260506111208 52 248 0.0 0.0 0.00 0.00 0.00 95 1018.4
20260506110648 52 225 0.0 0.0 0.00 0.00 0.00 95 1018.3
20260506105053 52 203 0.0 0.0 0.00 0.00 0.00 95 1018.3
20260506104533 52 225 0.0 0.0 0.00 0.00 0.00 95 1018.3
20260506104018 52 248 0.0 0.0 0.00 0.00 0.00 95 1018.3
20260506103459 52 225 0.0 0.0 0.00 0.00 0.00 95 1018.3
20260506102938 52 225 0.0 0.0 0.00 0.00 0.00 95 1018.1
20260506102418 52 225 0.0 0.0 0.00 0.00 0.00 95 1018.1
20260506101903 52 248 0.0 0.0 0.00 0.00 0.00 95 1018.0
20260506101343 52 248 0.0 0.0 0.00 0.00 0.00 95 1018.0
20260506100823 52 248 0.0 0.0 0.00 0.00 0.00 95 1018.0
20260506100303 52 225 0.0 0.0 0.00 0.00 0.00 95 1017.9
20260506095748 52 225 0.0 0.0 0.00 0.00 0.00 95 1017.9
20260506094708 52 225 0.0 0.0 0.00 0.00 0.00 95 1017.9
20260506094148 52 225 0.0 0.0 0.00 0.00 0.00 95 1017.9
20260506093633 52 293 0.0 0.0 0.00 0.00 0.00 95 1017.9
20260506092554 52 225 0.0 0.0 0.00 0.00 0.00 95 1018.0
20260506092033 52 203 0.0 0.0 0.00 0.00 0.00 95 1018.0
20260506091518 52 248 0.0 0.0 0.00 0.00 0.00 95 1018.0
20260506090958 52 248 0.0 0.0 0.00 0.00 0.00 95 1018.0